When you browse on this site, cookies collect data to enhance your experience and personalize the content and advertising you see.
Visit our Privacy Policy to learn more. By continuing to use the site, you agree to this use of cookies and data.
  • In Austria
  • List of Countries
  • For 7 days
  • Water Temperature
  • Weather Map
  • News
  • Weather Widgets
  • user-avatar
    Login

    Hourly Weather Eisenstadt

    Today, 27 January, Monday

    Time Temperature Precipitation Wind Pressure Humidity
    00:00 -1°C° 0 mm 0 mps 724 mmHg 90%
    01:00 -1°C° 0 mm 0 mps 724 mmHg 87%
    02:00 -1°C° 0 mm 0 mps 723 mmHg 87%
    03:00 -1°C° 0 mm 0 mps 723 mmHg 87%
    04:00 -1°C° 0 mm 0 mps 723 mmHg 87%
    05:00 -1°C° 0 mm 0 mps 723 mmHg 87%
    06:00 -1°C° 0 mm 0 mps 723 mmHg 87%
    07:00 -1°C° 0 mm 0 mps 723 mmHg 80%
    08:00 0°C° 0 mm 0 mps 723 mmHg 76%
    09:00 +1°C° 0 mm 0 mps 723 mmHg 72%
    10:00 +2°C° 0 mm 0 mps 723 mmHg 68%
    11:00 +4°C° 0 mm 1 mps 723 mmHg 66%
    12:00 +5°C° 0 mm 1 mps 723 mmHg 63%
    13:00 +6°C° 0 mm 1 mps 722 mmHg 61%
    14:00 +5°C° 0 mm 1 mps 722 mmHg 67%
    15:00 +5°C° 0 mm 1 mps 721 mmHg 73%
    16:00 +4°C° 0 mm 1 mps 721 mmHg 79%
    17:00 +3°C° 0 mm 1 mps 721 mmHg 82%
    18:00 +2°C° 0 mm 1 mps 720 mmHg 85%
    19:00 -1°C° 0 mm 2 mps 720 mmHg 89%
    20:00 -1°C° 0 mm 2 mps 720 mmHg 90%
    21:00 -1°C° 0 mm 2 mps 719 mmHg 91%
    22:00 0°C° 0 mm 3 mps 719 mmHg 92%
    23:00 0°C° 0 mm 3 mps 718 mmHg 93%

    Tomorrow, 28 January, Tuesday

    Time Temperature Precipitation Wind Pressure Humidity
    00:00 0°C° 0 mm 3 mps 717 mmHg 94%
    01:00 0°C° 0 mm 3 mps 716 mmHg 96%
    02:00 0°C° 0 mm 3 mps 715 mmHg 95%
    03:00 0°C° 0 mm 3 mps 714 mmHg 94%
    04:00 +1°C° 0 mm 3 mps 714 mmHg 94%
    05:00 0°C° 0 mm 3 mps 713 mmHg 93%
    06:00 +1°C° 0 mm 2 mps 713 mmHg 93%
    07:00 +1°C° 0 mm 2 mps 712 mmHg 93%
    08:00 +2°C° 0 mm 2 mps 712 mmHg 89%
    09:00 +4°C° 0 mm 1 mps 712 mmHg 85%
    10:00 +5°C° 0 mm 1 mps 712 mmHg 80%
    11:00 +5°C° 0 mm 1 mps 712 mmHg 79%
    12:00 +6°C° 0 mm 1 mps 711 mmHg 77%
    13:00 +7°C° 0 mm 1 mps 711 mmHg 76%
    14:00 +6°C° 0.1 mm 1 mps 711 mmHg 80%
    15:00 +5°C° 0.1 mm 1 mps 711 mmHg 85%
    16:00 +4°C° 0.1 mm 1 mps 710 mmHg 90%
    17:00 +3°C° 2.2 mm 2 mps 711 mmHg 89%
    18:00 +2°C° 2.2 mm 2 mps 711 mmHg 89%
    19:00 +2°C° 2.2 mm 2 mps 712 mmHg 88%
    20:00 +1°C° 0 mm 2 mps 712 mmHg 85%
    21:00 +1°C° 0 mm 2 mps 712 mmHg 82%
    22:00 +1°C° 0 mm 2 mps 713 mmHg 79%
    23:00 +1°C° 0 mm 2 mps 713 mmHg 81%

    Day after tomorrow, 29 January, Wednesday

    Time Temperature Precipitation Wind Pressure Humidity
    00:00 -1°C° 0 mm 2 mps 714 mmHg 83%
    01:00 -1°C° 0 mm 2 mps 714 mmHg 86%
    02:00 -1°C° 0 mm 3 mps 714 mmHg 87%
    03:00 -1°C° 0 mm 3 mps 714 mmHg 88%
    04:00 -1°C° 0 mm 3 mps 714 mmHg 90%
    05:00 -1°C° 0 mm 2 mps 714 mmHg 89%
    06:00 -2°C° 0 mm 2 mps 714 mmHg 87%
    07:00 -2°C° 0 mm 2 mps 715 mmHg 86%
    08:00 -1°C° 0 mm 2 mps 715 mmHg 82%
    09:00 +1°C° 0 mm 2 mps 716 mmHg 77%
    10:00 +2°C° 0 mm 2 mps 716 mmHg 73%
    11:00 +2°C° 0 mm 3 mps 716 mmHg 67%
    12:00 +3°C° 0 mm 3 mps 716 mmHg 62%
    13:00 +4°C° 0 mm 4 mps 716 mmHg 56%
    14:00 +3°C° 0 mm 3 mps 716 mmHg 59%
    15:00 +2°C° 0 mm 3 mps 717 mmHg 61%
    16:00 +2°C° 0 mm 3 mps 717 mmHg 64%
    17:00 +2°C° 0 mm 2 mps 717 mmHg 67%
    18:00 +1°C° 0 mm 2 mps 718 mmHg 71%
    19:00 -1°C° 0 mm 2 mps 718 mmHg 74%
    20:00 -1°C° 0.1 mm 2 mps 718 mmHg 76%
    21:00 -1°C° 0.1 mm 2 mps 719 mmHg 78%
    22:00 -1°C° 0.1 mm 3 mps 719 mmHg 81%
    23:00 -1°C° 0.1 mm 3 mps 719 mmHg 80%

    30 January, Thursday

    Time Temperature Precipitation Wind Pressure Humidity
    00:00 -1°C° 0.1 mm 3 mps 719 mmHg 80%
    01:00 -1°C° 0.1 mm 3 mps 720 mmHg 79%
    02:00 -1°C° 0.1 mm 3 mps 720 mmHg 80%
    03:00 -2°C° 0.1 mm 3 mps 721 mmHg 80%
    04:00 -2°C° 0.1 mm 3 mps 721 mmHg 81%
    05:00 -2°C° 0 mm 3 mps 722 mmHg 82%
    06:00 -2°C° 0 mm 3 mps 722 mmHg 83%
    07:00 -2°C° 0 mm 3 mps 723 mmHg 84%
    08:00 -1°C° 0 mm 3 mps 723 mmHg 76%
    09:00 0°C° 0 mm 3 mps 724 mmHg 69%
    10:00 +1°C° 0 mm 4 mps 724 mmHg 62%
    11:00 +3°C° 0 mm 3 mps 724 mmHg 60%
    12:00 +3°C° 0 mm 3 mps 724 mmHg 59%
    13:00 +4°C° 0 mm 3 mps 723 mmHg 57%
    14:00 +4°C° 0 mm 3 mps 723 mmHg 62%
    15:00 +4°C° 0 mm 2 mps 723 mmHg 67%
    16:00 +3°C° 0 mm 2 mps 722 mmHg 72%
    17:00 +2°C° 0 mm 2 mps 722 mmHg 75%
    18:00 +2°C° 0 mm 2 mps 722 mmHg 78%
    19:00 +1°C° 0 mm 2 mps 722 mmHg 81%
    20:00 +1°C° 0 mm 2 mps 722 mmHg 80%
    21:00 +1°C° 0 mm 2 mps 721 mmHg 80%
    22:00 +1°C° 0 mm 2 mps 721 mmHg 79%
    23:00 +1°C° 0 mm 2 mps 721 mmHg 77%

    31 January, Friday

    Time Temperature Precipitation Wind Pressure Humidity
    00:00 -1°C° 0 mm 2 mps 720 mmHg 75%
    01:00 -1°C° 0 mm 2 mps 720 mmHg 73%
    02:00 -1°C° 0 mm 2 mps 720 mmHg 71%
    03:00 +1°C° 0 mm 2 mps 719 mmHg 69%
    04:00 +1°C° 0 mm 2 mps 719 mmHg 66%
    05:00 +1°C° 0 mm 2 mps 719 mmHg 66%
    06:00 +3°C° 0 mm 1 mps 719 mmHg 65%
    07:00 +3°C° 0 mm 1 mps 719 mmHg 65%
    08:00 +4°C° 0 mm 1 mps 719 mmHg 64%
    09:00 +4°C° 0 mm 2 mps 719 mmHg 64%
    10:00 +4°C° 0 mm 2 mps 719 mmHg 63%
    11:00 +5°C° 0 mm 2 mps 718 mmHg 65%
    12:00 +5°C° 0 mm 2 mps 718 mmHg 67%
    13:00 +5°C° 0 mm 2 mps 718 mmHg 69%
    14:00 +5°C° 0 mm 2 mps 718 mmHg 72%
    15:00 +6°C° 0 mm 2 mps 718 mmHg 74%
    16:00 +6°C° 0 mm 2 mps 718 mmHg 77%
    17:00 +6°C° 0 mm 2 mps 719 mmHg 79%
    18:00 +6°C° 0 mm 2 mps 719 mmHg 81%
    19:00 +6°C° 0 mm 2 mps 719 mmHg 83%
    20:00 +6°C° 0 mm 2 mps 720 mmHg 84%
    21:00 +6°C° 0 mm 2 mps 720 mmHg 85%
    22:00 +6°C° 0 mm 2 mps 721 mmHg 86%
    23:00 +6°C° 0 mm 2 mps 721 mmHg 87%

    1 February, Saturday

    Time Temperature Precipitation Wind Pressure Humidity
    00:00 +6°C° 0 mm 2 mps 721 mmHg 88%
    01:00 +6°C° 0 mm 2 mps 721 mmHg 89%
    02:00 +6°C° 0 mm 2 mps 721 mmHg 88%
    03:00 +6°C° 0 mm 2 mps 721 mmHg 88%
    04:00 +6°C° 0 mm 2 mps 721 mmHg 87%
    05:00 +6°C° 0 mm 2 mps 721 mmHg 87%
    06:00 +8°C° 0 mm 1 mps 721 mmHg 86%
    07:00 +8°C° 0 mm 1 mps 721 mmHg 86%
    08:00 +8°C° 0 mm 1 mps 721 mmHg 85%
    09:00 +8°C° 0 mm 1 mps 722 mmHg 84%
    10:00 +9°C° 0 mm 1 mps 722 mmHg 83%
    11:00 +10°C° 0 mm 1 mps 722 mmHg 81%
    12:00 +10°C° 0 mm 1 mps 722 mmHg 79%
    13:00 +11°C° 0 mm 1 mps 722 mmHg 78%
    14:00 +11°C° 0 mm 1 mps 722 mmHg 79%
    15:00 +11°C° 0 mm 1 mps 722 mmHg 80%
    16:00 +10°C° 0 mm 1 mps 722 mmHg 82%
    17:00 +10°C° 0 mm 1 mps 722 mmHg 83%
    18:00 +8°C° 0 mm 2 mps 722 mmHg 84%
    19:00 +7°C° 0 mm 2 mps 722 mmHg 85%
    20:00 +7°C° 0 mm 2 mps 722 mmHg 84%
    21:00 +8°C° 0 mm 2 mps 723 mmHg 83%
    22:00 +8°C° 0 mm 2 mps 723 mmHg 81%
    23:00 +8°C° 0 mm 2 mps 723 mmHg 82%
    Show more